| time (UTC) | temp C | wind direction | speed KPH | gust KPH | rain 1hr cm | rain 24hr cm | rain mn cm | humidity % | barometer mb |
| 20260503200505 | 24 | 233 | 16.1 | 27.4 | 0.00 | 0.03 | 0.03 | 100 | 1008.1 |
| 20260503195005 | 23 | 261 | 12.9 | 24.1 | 0.00 | 0.03 | 0.03 | 100 | 1008.3 |
| 20260503194004 | 23 | 241 | 16.1 | 32.2 | 0.00 | 0.03 | 0.03 | 100 | 1008.7 |
| 20260503193505 | 23 | 239 | 16.1 | 24.1 | 0.00 | 0.03 | 0.03 | 100 | 1008.6 |
| 20260503185505 | 22 | 244 | 27.4 | 35.4 | 0.00 | 0.03 | 0.03 | 100 | 1009.1 |
| 20260503182006 | 21 | 222 | 17.7 | 27.4 | 0.00 | 0.03 | 0.03 | 100 | 1009.8 |
| 20260503181505 | 21 | 216 | 9.7 | 25.7 | 0.00 | 0.03 | 0.03 | 100 | 1009.8 |
| 20260503180505 | 20 | 203 | 20.9 | 33.8 | 0.00 | 0.03 | 0.03 | 100 | 1010.0 |
| 20260503180005 | 20 | 205 | 17.7 | 32.2 | 0.00 | 0.03 | 0.03 | 100 | 1010.1 |
| 20260503175504 | 20 | 219 | 16.1 | 29.0 | 0.00 | 0.03 | 0.03 | 100 | 1010.1 |
| 20260503175005 | 20 | 230 | 19.3 | 27.4 | 0.00 | 0.03 | 0.03 | 100 | 1010.2 |
| 20260503174504 | 20 | 224 | 19.3 | 35.4 | 0.00 | 0.03 | 0.03 | 100 | 1010.3 |
| 20260503173504 | 20 | 232 | 16.1 | 24.1 | 0.00 | 0.03 | 0.03 | 100 | 1010.4 |
| 20260503172505 | 18 | 245 | 19.3 | 32.2 | 0.00 | 0.03 | 0.03 | 100 | 1010.6 |
| 20260503172005 | 18 | 212 | 16.1 | 27.4 | 0.00 | 0.03 | 0.03 | 100 | 1010.6 |
| 20260503171504 | 18 | 217 | 20.9 | 33.8 | 0.00 | 0.03 | 0.03 | 100 | 1010.6 |
| 20260503170505 | 18 | 215 | 16.1 | 35.4 | 0.00 | 0.03 | 0.03 | 100 | 1010.9 |
| 20260503151005 | 13 | 200 | 22.5 | 37.0 | 0.00 | 0.03 | 0.03 | 100 | 1012.2 |
| 20260503150505 | 13 | 184 | 22.5 | 32.2 | 0.00 | 0.03 | 0.03 | 100 | 1012.4 |
| 20260503130504 | 8 | 143 | 19.3 | 25.7 | 0.03 | 0.03 | 0.03 | 100 | 1014.6 |
| 20260503081504 | 8 | 190 | 8.0 | 12.9 | 0.00 | 0.00 | 0.00 | 100 | 1017.0 |
| 20260503052504 | 8 | 204 | 8.0 | 14.5 | 0.00 | 0.00 | 0.00 | 100 | 1017.8 |
| 20260503052004 | 8 | 200 | 9.7 | 16.1 | 0.00 | 0.00 | 0.00 | 100 | 1017.8 |
| 20260503050504 | 8 | 214 | 4.8 | 8.0 | 0.00 | 0.00 | 0.00 | 100 | 1017.9 |
| 20260503045504 | 8 | 205 | 8.0 | 12.9 | 0.00 | 0.00 | 0.00 | 100 | 1017.9 |
| 20260503045004 | 8 | 201 | 4.8 | 12.9 | 0.00 | 0.00 | 0.00 | 100 | 1017.9 |
| 20260503043004 | 8 | 190 | 4.8 | 8.0 | 0.00 | 0.00 | 0.00 | 100 | 1018.0 |
| 20260503042503 | 8 | 196 | 4.8 | 9.7 | 0.00 | 0.00 | 0.00 | 100 | 1018.1 |
| 20260503042004 | 8 | 202 | 4.8 | 8.0 | 0.00 | 0.00 | 0.00 | 100 | 1018.1 |
| 20260503041003 | 8 | 204 | 4.8 | 8.0 | 0.00 | 0.00 | 0.00 | 100 | 1018.2 |
| 20260503035505 | 8 | 214 | 3.2 | 4.8 | 0.00 | 0.00 | 0.00 | 100 | 1018.4 |
| 20260503034005 | 8 | 204 | 4.8 | 8.0 | 0.00 | 0.00 | 0.00 | 100 | 1018.5 |
| 20260503033006 | 8 | 205 | 3.2 | 4.8 | 0.00 | 0.00 | 0.00 | 100 | 1018.7 |
| 20260503032505 | 8 | 211 | 4.8 | 8.0 | 0.00 | 0.00 | 0.00 | 100 | 1018.7 |
| 20260503031505 | 8 | 201 | 4.8 | 8.0 | 0.00 | 0.00 | 0.00 | 100 | 1018.9 |
| 20260503030505 | 9 | 200 | 8.0 | 9.7 | 0.00 | 0.00 | 0.00 | 100 | 1018.9 |
| 20260503030005 | 9 | 193 | 4.8 | 8.0 | 0.00 | 0.00 | 0.00 | 100 | 1018.9 |
| 20260503022006 | 10 | 213 | 4.8 | 8.0 | 0.00 | 0.00 | 0.00 | 100 | 1018.9 |
| 20260503021505 | 10 | 208 | 6.4 | 9.7 | 0.00 | 0.00 | 0.00 | 100 | 1018.9 |
| 20260503020505 | 11 | 206 | 4.8 | 9.7 | 0.00 | 0.00 | 0.00 | 100 | 1018.8 |
| 20260503020005 | 11 | 196 | 4.8 | 9.7 | 0.00 | 0.00 | 0.00 | 100 | 1018.8 |
| 20260503013505 | 12 | 215 | 3.2 | 4.8 | 0.00 | 0.00 | 0.00 | 100 | 1018.6 |
| 20260503013006 | 12 | 220 | 4.8 | 9.7 | 0.00 | 0.00 | 0.00 | 100 | 1018.7 |
| 20260503011506 | 12 | 224 | 8.0 | 12.9 | 0.00 | 0.00 | 0.00 | 100 | 1018.9 |
| 20260503004505 | 13 | 229 | 9.7 | 16.1 | 0.00 | 0.00 | 0.00 | 100 | 1018.8 |
| 20260503004005 | 14 | 227 | 8.0 | 16.1 | 0.00 | 0.00 | 0.00 | 100 | 1018.6 |
| 20260503002505 | 15 | 239 | 11.3 | 19.3 | 0.00 | 0.00 | 0.00 | 100 | 1018.8 |
| 20260503002005 | 15 | 235 | 12.9 | 22.5 | 0.00 | 0.00 | 0.00 | 100 | 1018.8 |
| 20260503001505 | 15 | 247 | 11.3 | 19.3 | 0.00 | 0.00 | 0.00 | 100 | 1018.9 |
| 20260502235506 | 15 | 250 | 16.1 | 20.9 | 0.00 | 0.00 | 0.00 | 100 | 1018.9 |
| 20260502233005 | 15 | 254 | 16.1 | 20.9 | 0.00 | 0.00 | 0.00 | 100 | 1019.3 |
| 20260502232504 | 15 | 231 | 11.3 | 16.1 | 0.00 | 0.00 | 0.00 | 100 | 1019.3 |
| 20260502232005 | 15 | 259 | 12.9 | 20.9 | 0.00 | 0.00 | 0.00 | 100 | 1019.4 |
| 20260502231005 | 15 | 236 | 14.5 | 25.7 | 0.00 | 0.00 | 0.00 | 100 | 1019.5 |
| 20260502225505 | 16 | 242 | 11.3 | 19.3 | 0.00 | 0.00 | 0.00 | 100 | 1019.6 |
| 20260502224505 | 16 | 255 | 14.5 | 25.7 | 0.00 | 0.00 | 0.00 | 100 | 1019.7 |
| 20260502223005 | 16 | 257 | 14.5 | 27.4 | 0.00 | 0.00 | 0.00 | 100 | 1019.5 |
| 20260502221505 | 15 | 207 | 12.9 | 20.9 | 0.00 | 0.00 | 0.00 | 100 | 1019.8 |
| 20260502220006 | 16 | 223 | 17.7 | 25.7 | 0.00 | 0.00 | 0.00 | 100 | 1019.9 |
| 20260502215005 | 16 | 244 | 14.5 | 24.1 | 0.00 | 0.00 | 0.00 | 100 | 1020.0 |
| 20260502214505 | 16 | 239 | 14.5 | 24.1 | 0.00 | 0.00 | 0.00 | 100 | 1019.9 |
| 20260502214005 | 16 | 273 | 17.7 | 24.1 | 0.00 | 0.00 | 0.00 | 100 | 1020.1 |
| 20260502213005 | 16 | 251 | 17.7 | 29.0 | 0.00 | 0.00 | 0.00 | 100 | 1020.1 |
| 20260502212505 | 16 | 285 | 14.5 | 19.3 | 0.00 | 0.00 | 0.00 | 100 | 1020.3 |
| 20260502212005 | 16 | 271 | 17.7 | 24.1 | 0.00 | 0.00 | 0.00 | 100 | 1020.3 |
| 20260502211506 | 15 | 244 | 12.9 | 20.9 | 0.00 | 0.00 | 0.00 | 100 | 1020.3 |
| 20260502210005 | 16 | 226 | 8.0 | 16.1 | 0.00 | 0.00 | 0.00 | 100 | 1020.5 |
| 20260502205505 | 16 | 244 | 12.9 | 24.1 | 0.00 | 0.00 | 0.00 | 100 | 1020.5 |
| 20260502204005 | 15 | 292 | 4.8 | 25.7 | 0.00 | 0.00 | 0.00 | 100 | 1020.9 |